DECAYED

TRANSIT 16 DEB, 33508 (Decayed)

Orbit data source: Space-Track

TRANSIT 16 DEB, 33508 was space debris in LEO originally from a launch on Thu, 18 May 1967 UTC launched from the Air Force Western Test Range (AFWTR). Debris objects in space refer to the collection of defunct objects orbiting the Earth. Examples of debris include non-operational satellites, rocket bodies, and fragments generated from explosions, collisions, or faulty payload assembly.

Not visible in the next 10 days
Identifier
33508, 1967-048G
Orbit
Decayed
Country
Flag of USUS
Related business
Manufacturer
Unknown
Mission
Decayed spacecraft
Bus & Motor
Unknown
Mass
Unknown
Launch date (UTC)
1967-05-18 (58 years ago)
Launch vehicle
Unknown
Launch site
Air Force Western Test Range (AFWTR)
Object type
Payload
Rocket body
Debris
Shape & HBR
Unknown
Radar Cross Section
Small (<0.1 m²)

Expand to show TLE details & history
Last TLE update: 1 year ago

TLE from 1 year ago
0 TRANSIT 16 DEB
1 33508U 67048G   24235.79972159  .15470437  00000-0  14014+0 0  9999
2 33508  89.5126 340.6395 0043991 313.0328  46.7257 15.60671670828488
Epoch: 2024-08-22T19:11Z
TLE epoch observation values (Epoch: 2024-08-22T19:11:35.945Z)
Latitude
-0.00006°
Longitude
81.15737°
Altitude
368.637 km
Speed
7.7 km/s
True Right ascension
22h 42m 33s
True Declination
0° 00' 00"
Sunlit
Object was in full shadow at epoch
Visualization orbit readout
Latitude
Unknown
Longitude
Unknown
Altitude
Unknown
Speed
Unknown
Apparent Right ascension
Unknown
Apparent Declination
Unknown
Sunlit
N/A
Visualization observer readout
Local Sidereal Time
00:00:40
Azimuth
Unknown
Elevation
Unknown
Doppler factor
Unknown
Orbital elements
Apogee altitude
412.207 km
Perigee altitude
352.725 km
Semi-major axis
6,760.603 km
Eccentricity
0.0044
Inclination
89.5126°
RAAN
340.6395°
Arg. of periapsis
313.0328°
True anomaly
47.09411°
Mean anomaly
46.7257°
Eccentric anomaly
46.90977°
Mean motion
3.9045 °/min
Orbital period
92.2 mins
BSTAR
0.14014
Loading maneuver chart data...
Computing Atmospheric mass density...
Loading historical data...
Loading historical data...
Loading historical data...
Loading historical data...
Loading historical data...
Loading historical data...
Loading historical data...

Documentation

Showing up to 5 results
|